{"data":{"norad_id":56034,"epoch":"2026-09-20T08:26:29.989536Z","epoch_age_seconds":118910,"freshness":"FRESH","line1":"1 56034U 23042BA  26263.35173599 -.00000136  00000+0  45829-5 0  9993","line2":"2 56034  43.0033  26.1168 0001799 267.8606  92.2040 15.27570386192809","mean_motion":15.27570386,"eccentricity":0.0001799,"inclination_deg":43.0033,"raan_deg":26.1168,"arg_perigee_deg":267.8606,"mean_anomaly_deg":92.204,"bstar":4.5829e-6,"rev_number":19280,"period_min":94.267341995984,"perigee_km":481.84355140763,"apogee_km":484.31221652288,"semimajor_km":6861.2148839653,"source":"CELESTRAK","updated_at":"2026-09-21T09:00:33.359458Z"}}